This demonstration page uses our WeatherBlox Daily Observations layout. Learn more.

Left ArrowRight Arrow

Hourly Observations for September 21, 2015

Temp ( °F °C ) Dew Point ( °F °C ) Humidity (%) Winds ( mph kmh ) Pressure ( in mb ) Visibility ( mi km ) Precip ( " mm )
12:51 am 00:51 Clear 76 24.4 56 13.3 50 50 ESE 5 7 29.81 1010 10 16.0934 0 0
1:51 am 01:51 Clear 73 22.8 56 13.3 55 55 S 8 13 29.8 1009 10 16.0934 0 0
2:51 am 02:51 Clear 73 22.8 57 13.9 57 57 SE 9 15 29.8 1009 10 16.0934 0 0
3:51 am 03:51 Clear 73 22.8 59 15 62 62 SE 7 11 29.79 1009 10 16.0934 0 0
4:51 am 04:51 Clear 72 22.2 59 15 64 64 SE 6 9 29.8 1009 10 16.0934 0 0
5:51 am 05:51 Clear 71 21.7 59 15 66 66 E 5 7 29.82 1010 10 16.0934 0 0
6:51 am 06:51 Sunny 73 22.8 60 15.6 64 64 SE 7 11 29.84 1010 10 16.0934 0 0
7:51 am 07:51 Sunny 73 22.8 60 15.6 64 64 SSE 7 11 29.84 1010 10 16.0934 0 0
8:51 am 08:51 Mostly Sunny 74 23.3 61 16.1 64 64 SE 8 13 29.83 1010 10 16.0934 0 0
9:51 am 09:51 Cloudy with Light Rain 72 22.2 64 17.8 76 76 SSE 9 15 29.86 1011 10 16.0934 0 0.0254
10:51 am 10:51 Cloudy with Rain 69 20.6 66 18.9 90 90 SE 6 9 29.88 1012 5 8.0467 0.08 2.032
11:51 am 11:51 Cloudy with Rain 70 21.1 68 20 93 93 SE 7 11 29.85 1011 4 6.43736 0.1 2.54
12:51 pm 12:51 Cloudy with Light Rain 71 21.7 68 20 90 90 E 8 13 29.81 1010 7 11.26538 0.05 1.27
1:39 pm 13:39 Cloudy with Heavy Rain 70 21.1 66 18.9 87 87 ENE 10 17 29.83 1010 1.75 2.816345 0.04 1.016
1:49 pm 13:49 Cloudy with Light Rain 70 21 66 19 88 88 ENE 13 20 29.8 1009 3 4.82802 0.07 1.778
1:51 pm 13:51 Cloudy with Light Rain 69 20.6 65 18.3 87 87 E 12 19 29.8 1009 4 6.43736 0.07 1.778
2:00 pm 14:00 Cloudy with Heavy Rain 69 20.6 65 18.3 87 87 E 10 17 29.83 1010 1.75 2.816345 0.04 1.016
2:17 pm 14:17 Cloudy with Heavy Rain 68 20 66 18.9 93 93 E 14 22 29.8 1009 2 3.21868 0.16 4.064
2:25 pm 14:25 Cloudy with Light Rain 69 20.6 65 18.3 87 87 E 12 19 29.8 1009 8 12.87472 0.16 4.064
2:38 pm 14:38 Cloudy with Rain 69 20.6 66 18.9 90 90 E 12 19 29.8 1009 6 9.65604 0.17 4.318
2:51 pm 14:51 Cloudy with Heavy Rain 69 20.6 65 18.3 87 87 E 9 15 29.78 1008 2.5 4.02335 0.2 5.08
3:00 pm 15:00 Cloudy with Heavy Rain 68 20 66 18.9 93 93 ESE 5 7 29.8 1009 1.5 2.41401 0.05 1.27
3:27 pm 15:27 Cloudy with Heavy Rain 68 20 65 18.3 90 90 E 15 24 29.77 1008 2.5 4.02335 0.22 5.588
3:47 pm 15:47 Cloudy with Rain 68 20 64 18 88 88 ENE 16 26 29.77 1008 3 4.82802 0.27 6.858
3:51 pm 15:51 Cloudy with Rain 68 20 64 17.8 87 87 E 15 24 29.74 1007 3 4.82802 0.28 7.112
4:18 pm 16:18 Cloudy with Heavy Rain 67 19.4 64 17.8 91 91 E 21 33 29.74 1007 2 3.21868 0.07 1.778
4:36 pm 16:36 Cloudy with Light Rain 68 20 64 17.8 87 87 E 20 31 29.74 1007 4 6.43736 0.11 2.794
4:51 pm 16:51 Cloudy with Light Rain 68 20 63 17.2 84 84 E 23 37 29.72 1007 6 9.65604 0.11 2.794
5:36 pm 17:36 Cloudy with Light Rain 67 19.4 63 17.2 87 87 ENE 23 37 29.74 1007 2.5 4.02335 0.03 0.762
5:43 pm 17:43 Cloudy with Light Rain 67 19.4 63 17.2 87 87 ENE 24 39 29.74 1007 4 6.43736 0.03 0.762
5:51 pm 17:51 Cloudy with Light Rain 67 19.4 63 17.2 87 87 ENE 18 30 29.73 1007 5 8.0467 0.04 1.016
6:22 pm 18:22 Cloudy with Heavy Rain 67 19.4 64 17.8 91 91 ENE 17 28 29.74 1007 2 3.21868 0.03 0.762
6:31 pm 18:31 Cloudy with Heavy Rain 67 19.4 64 17.8 91 91 ENE 16 26 29.74 1007 2.5 4.02335 0.06 1.524
6:51 pm 18:51 Cloudy with Heavy Rain 66 18.9 64 17.8 93 93 E 12 19 29.74 1007 2.5 4.02335 0.2 5.08
7:01 pm 19:01 Cloudy with Light Rain 67 19.4 65 18.3 93 93 E 16 26 29.74 1007 7 11.26538 0.01 0.254
7:33 pm 19:33 Cloudy 67 19.4 64 17.8 91 91 E 16 26 29.77 1008 10 16.0934 0.01 0.254
7:51 pm 19:51 Cloudy with Rain 67 19.4 66 18.9 97 97 Calm 29.78 1009 4 6.43736 0.02 0.508
7:54 pm 19:54 Cloudy with Heavy Rain 67 19.4 66 18.9 97 97 Calm 29.8 1009 2.5 4.02335 0.01 0.254
7:57 pm 19:57 Cloudy with Heavy Rain 67 19.4 66 18.9 97 97 WSW 6 9 29.8 1009 1.75 2.816345 0.04 1.016
8:07 pm 20:07 Cloudy with Heavy Rain 66 18.9 65 18.3 96 96 NW 9 15 29.8 1009 2 3.21868 0.11 2.794
8:17 pm 20:17 Cloudy with Light Rain 66 18.9 65 18.3 96 96 NNW 7 11 29.8 1009 4 6.43736 0.12 3.048
8:26 pm 20:26 Cloudy with Light Rain 66 18.9 65 18.3 96 96 N 6 9 29.8 1009 6 9.65604 0.13 3.302
8:51 pm 20:51 Cloudy 66 18.9 66 18.9 100 100 W 5 7 29.8 1009 10 16.0934 0.13 3.302
9:39 pm 21:39 Cloudy 66 18.9 65 18.3 96 96 WNW 8 13 29.83 1010 10 16.0934 0 0
9:51 pm 21:51 Cloudy 66 18.9 65 18.3 96 96 NW 3 6 29.83 1010 10 16.0934 0 0
10:14 pm 22:14 Cloudy 66 18.9 65 18.3 96 96 NW 7 11 29.83 1010 10 16.0934 0 0
10:51 pm 22:51 Cloudy 66 18.9 65 18.3 96 96 W 5 7 29.85 1011 10 16.0934 0 0
11:51 pm 23:51 Cloudy with Light Rain 67 19.4 66 18.9 97 97 Calm 29.85 1011 9 14.48406 0 0.0254

Powered by AerisWeather